Wind_Speed
5 4 3 5 7 10 17 24 23 1 3 7 6 5 7 11 10 4 8 15 18 16 14 17 16 18 13 9 8 5 4 1 3 5 6 6 5 4 4 5 6 5 7 6 5 5 4 3 3
6 6 3 3 15 17 24 23 5 4 4 4 12 15 10 6 15 10 4 12 12 7 10 13 17 17 13 11 11 8 6 2 2 5 6 7 7 6 5 5 6 8 7 8 8 7 6 5 5
6 5 6 10 17 22 25 11 3 2 7 15 3 10 5 9 21 20 11 9 9 10 10 9 15 17 14 12 12 10 7 3 3 5 7 9 9 9 8 7 7 7 9 9 9 9 9 7 6
8 7 10 14 19 21 20 16 6 8 5 6 6 7 13 18 21 13 18 22 12 8 5 7 11 15 14 13 12 10 6 3 4 5 7 9 10 10 10 9 9 9 9 11 11 11 11 11 10
7 7 16 23 24 21 21 11 5 7 8 10 9 12 13 20 14 15 12 22 22 10 6 8 9 12 13 13 12 10 7 5 5 5 6 8 8 8 8 9 9 10 9 10 12 13 13 13 13
10 13 21 22 22 22 6 5 9 9 11 11 12 12 17 18 13 11 11 23 21 13 10 9 10 11 12 13 13 12 9 7 6 5 6 7 8 8 7 7 7 8 9 9 10 11 11 12 12
14 13 21 25 26 23 15 11 11 7 11 11 10 12 20 21 18 14 11 12 15 11 11 12 12 12 13 14 15 14 10 7 6 6 7 8 7 7 6 5 5 7 8 8 8 9 9 9 10
14 17 23 22 23 23 12 2 7 9 9 16 12 5 14 24 24 23 17 14 16 13 13 14 13 14 14 14 16 14 11 10 8 7 8 9 8 7 6 5 6 5 7 8 6 7 8 7 7
13 21 23 19 19 16 5 9 13 15 14 12 10 16 20 18 19 22 22 15 14 16 16 15 15 14 14 15 17 16 14 12 9 9 10 10 9 8 7 6 6 6 7 6 7 8 7 6 5
17 21 22 18 19 17 17 10 10 11 11 12 15 22 22 21 24 21 22 18 13 17 16 16 16 15 15 17 19 18 17 15 11 11 11 12 9 8 8 8 7 7 8 8 7 6 8 9 7
18 27 20 21 22 15 16 16 16 17 18 13 11 21 20 20 20 22 19 20 18 20 20 18 19 18 18 19 21 20 19 17 15 13 14 14 12 10 9 8 8 8 8 7 8 9 6 8 9
22 24 25 25 23 22 21 18 19 18 19 17 14 13 12 22 17 18 22 23 24 24 22 21 22 22 22 22 23 23 21 19 18 16 16 16 14 12 10 9 9 9 8 6 5 6 7 7 8
22 23 25 24 25 25 24 24 24 24 21 21 20 21 22 20 35 30 21 22 26 25 28 27 25 24 25 25 26 26 24 22 21 19 18 18 17 15 12 10 9 8 6 6 6 5 5 5 7
18 21 24 24 24 24 25 27 25 27 25 25 25 26 25 27 25 26 31 29 26 29 31 30 29 26 27 28 28 28 28 26 23 23 21 22 20 18 16 13 11 10 9 9 9 8 9 9 9
18 25 26 27 27 29 25 31 31 27 26 28 27 27 27 26 28 24 28 31 33 32 35 34 30 29 29 31 32 30 31 29 27 25 23 24 23 21 19 16 15 12 12 12 12 12 12 13 13
24 25 29 24 22 22 22 31 23 22 21 25 25 29 25 23 27 29 27 32 33 34 40 41 37 34 32 35 35 32 33 33 32 27 26 25 24 23 22 20 18 17 16 16 15 15 14 15 15
22 30 27 24 20 16 20 26 16 14 15 18 20 20 22 23 24 25 27 31 33 36 42 41 39 36 33 35 36 37 35 36 35 30 28 28 26 25 25 24 21 21 20 19 17 17 17 17 17
21 23 25 24 18 19 23 27 24 26 24 24 23 23 24 25 28 25 26 27 33 36 42 44 38 39 37 39 36 39 38 40 38 34 30 30 28 28 28 26 25 25 23 22 20 19 19 19 19
27 29 32 31 27 29 30 33 31 29 31 32 35 34 35 33 33 29 28 29 30 34 45 49 38 32 36 43 41 42 40 42 39 37 31 33 31 30 30 27 27 28 26 23 22 21 21 20 20
28 30 33 35 28 29 33 43 39 36 36 37 37 37 35 33 32 29 30 32 35 38 44 49 44 35 31 38 41 41 38 41 39 38 33 34 33 32 32 29 30 30 26 25 24 23 23 21 21
26 29 29 33 29 33 34 51 41 39 36 36 39 40 36 36 40 38 36 38 38 43 49 48 44 40 35 36 39 41 40 42 43 40 37 36 35 36 35 32 31 30 28 26 25 24 24 21 22
39 25 30 30 29 32 26 35 45 28 31 28 22 29 30 38 39 40 36 32 32 40 44 50 48 42 36 37 41 42 42 42 43 41 40 38 38 39 37 34 32 33 30 28 27 25 25 24 22
28 20 22 27 30 27 49 24 57 43 39 31 31 29 36 45 49 40 39 38 34 29 38 45 45 44 41 36 40 42 43 43 44 43 42 39 39 40 39 36 35 36 33 31 29 28 25 26 22
20 20 22 26 29 19 54 32 30 61 30 36 35 34 39 44 45 42 40 42 28 22 32 37 39 44 43 36 37 43 44 45 46 45 43 40 40 41 41 39 39 37 34 35 34 31 28 27 25
15 18 12 11 15 17 40 36 42 38 39 34 21 29 35 35 24 31 34 34 30 41 48 33 33 37 40 38 35 37 43 45 48 49 44 42 41 42 42 41 41 38 37 38 37 36 32 28 26
18 17 15 14 14 18 35 26 36 14 21 27 28 32 32 26 28 31 32 33 29 32 33 33 31 32 36 35 37 39 44 47 49 51 46 44 44 43 43 43 41 40 39 39 37 39 32 32 28
12 18 20 19 30 24 33 45 46 48 36 35 33 21 13 23 27 30 33 36 33 25 26 29 30 35 31 35 36 43 41 49 49 48 45 48 44 42 41 43 43 45 43 46 48 54 36 34 31
16 18 17 22 15 22 25 32 26 23 24 18 15 12 14 12 19 20 24 27 28 29 31 35 28 27 30 33 35 39 42 48 50 49 43 41 44 42 45 46 48 53 51 41 51 48 42 41 31
23 28 24 15 15 10 15 13 11 19 19 11 22 15 7 10 9 13 12 14 18 24 27 30 27 25 27 28 30 33 38 42 45 45 46 46 45 46 44 43 47 43 37 38 38 35 36 32 30
30 31 28 26 24 25 13 8 31 28 25 25 14 8 6 5 16 9 11 15 14 15 14 16 17 20 21 27 29 34 37 39 38 40 42 42 44 43 42 42 40 39 41 38 36 34 32 32 35
Wind_Direction
274 253 245 221 249 243 258 254 261 319 266 236 251 183 242 295 269 220 198 245 258 280 255 251 248 238 239 248 235 233 229 166 357 350 350 342 335 325 299 280 269 259 269 270 270 271 278 285 288
266 252 299 238 244 260 262 270 150 203 184 256 250 260 248 281 253 253 239 258 257 205 219 237 239 233 236 242 229 229 227 240 336 338 332 331 324 310 297 279 268 266 256 261 264 271 271 279 284
277 266 257 241 246 249 269 347 47 75 279 282 273 288 215 227 247 236 231 253 188 175 208 213 227 226 231 237 227 226 224 251 316 336 335 333 324 318 309 292 274 267 269 261 260 263 268 266 268
263 327 272 252 259 264 266 281 255 280 331 278 238 261 251 240 252 250 234 241 230 201 209 224 221 224 231 236 230 228 233 267 315 333 331 329 326 317 307 301 285 269 265 268 269 268 264 267 266
311 274 256 263 270 268 271 244 328 268 289 258 258 243 253 267 264 247 251 221 233 241 235 238 225 226 232 232 229 228 232 256 289 307 324 325 319 312 309 306 302 296 286 278 268 267 268 267 268
264 252 264 269 270 275 264 270 255 261 267 266 250 243 255 266 254 250 241 221 237 244 241 239 231 232 237 233 231 228 236 254 280 306 320 318 313 312 310 307 306 301 296 288 284 277 273 271 267
259 264 262 267 280 292 301 267 229 252 268 267 251 241 255 253 255 253 245 219 220 241 228 239 236 233 234 234 234 230 234 252 271 297 309 308 303 301 301 297 300 306 307 304 300 292 284 279 277
258 263 269 269 278 280 277 233 254 251 258 257 237 238 258 248 254 257 251 245 234 233 228 239 237 238 240 243 239 233 237 245 261 286 302 305 299 296 296 297 297 295 299 306 310 305 298 291 283
255 258 262 266 263 307 289 266 265 257 246 264 266 241 258 253 243 251 245 253 240 225 229 237 240 243 245 244 243 241 245 251 261 284 295 299 297 300 297 290 290 297 294 293 305 305 299 293 291
251 255 258 261 274 300 286 297 273 244 267 259 250 266 278 269 257 254 240 242 240 227 234 243 245 248 248 250 247 243 246 250 261 278 285 292 297 297 290 287 289 290 290 291 284 284 301 303 296
250 254 262 266 277 298 284 278 267 261 261 259 262 252 257 270 268 248 236 233 238 231 236 238 241 242 249 252 252 247 249 252 261 272 280 289 295 292 285 278 276 276 279 287 295 293 272 276 289
261 259 262 266 270 280 272 269 262 258 261 244 248 255 279 280 253 251 246 238 233 232 231 235 237 240 247 250 251 245 251 256 261 266 273 282 289 289 282 275 275 279 278 272 267 279 292 291 289
253 266 263 268 270 271 270 263 264 258 254 259 260 248 250 255 269 262 255 252 245 240 232 236 241 241 245 245 250 247 247 253 258 261 266 274 281 282 277 270 268 262 263 275 276 272 271 286 292
260 258 259 263 267 265 265 266 266 266 265 259 254 249 248 260 255 264 253 250 250 247 241 241 245 244 246 249 251 250 249 249 253 255 261 267 274 278 276 272 267 263 260 258 262 272 282 285 281
271 268 268 261 265 268 269 267 261 269 269 260 248 253 247 241 256 244 263 271 256 252 253 247 248 247 249 251 252 253 251 250 248 252 256 260 267 271 271 267 262 259 258 260 264 270 274 278 283
264 265 268 272 263 267 249 264 267 261 271 247 232 236 248 246 233 239 239 262 267 265 262 252 251 253 251 254 252 252 250 248 248 249 250 255 260 266 267 264 265 261 258 259 262 267 274 278 280
258 258 261 269 263 253 240 257 263 248 268 244 251 249 245 246 248 244 235 228 253 261 264 261 255 253 251 254 252 251 249 248 248 246 249 254 257 260 264 263 260 258 258 259 262 268 272 277 281
268 262 260 259 266 252 256 257 257 261 259 257 260 248 249 263 260 253 249 242 226 245 253 258 263 254 250 251 252 251 249 248 247 246 248 251 253 256 259 260 257 258 257 258 262 266 270 273 275
269 273 277 278 279 283 273 268 262 261 262 261 257 257 261 260 257 248 244 249 249 231 244 251 262 262 251 248 250 252 250 248 248 247 249 249 250 251 255 254 255 255 255 256 258 259 261 264 268
272 276 276 280 282 279 280 274 268 263 261 262 260 261 257 256 255 254 247 243 244 242 241 249 257 261 258 252 251 251 248 248 247 246 247 247 247 248 250 251 254 254 252 253 255 256 258 258 262
267 270 273 275 284 283 290 281 271 267 266 260 261 269 259 254 247 239 233 235 242 238 247 253 258 260 259 253 244 244 241 242 242 243 245 245 244 244 246 248 251 250 248 249 250 255 259 261 264
271 272 276 278 285 282 279 285 283 278 264 256 268 256 250 234 236 232 226 223 226 232 240 253 256 252 254 253 243 243 243 245 246 245 245 245 244 245 245 246 247 247 248 247 249 253 259 262 259
273 276 274 279 274 283 273 258 276 276 271 271 265 269 244 243 236 229 235 224 214 240 240 245 249 250 249 247 244 242 241 241 243 244 246 246 245 245 245 245 246 248 250 252 253 253 256 263 266
274 285 286 274 270 263 260 267 264 273 280 281 275 254 236 240 237 233 232 229 227 231 244 246 243 243 252 247 241 242 241 242 244 244 245 246 246 246 245 245 247 250 251 251 252 255 254 257 261
276 271 279 263 237 240 264 267 260 275 286 268 252 233 230 241 243 234 237 228 237 243 243 251 250 241 247 250 248 243 244 245 247 246 245 246 247 248 246 245 247 249 250 251 250 251 254 255 257
265 276 276 291 287 291 290 282 281 316 299 276 263 247 250 260 249 243 236 245 244 240 251 262 259 254 248 250 246 242 248 239 247 251 248 247 246 246 245 247 248 247 245 244 249 251 246 248 247
285 271 278 302 291 290 275 277 274 278 286 274 272 262 237 245 248 244 251 251 259 252 260 266 264 259 250 246 245 244 250 248 246 255 256 253 255 249 243 242 240 241 235 241 255 249 241 238 242
278 290 298 286 282 273 277 280 290 288 295 271 242 247 257 252 266 260 261 263 265 269 268 266 261 259 251 246 242 239 243 245 251 252 256 252 251 244 241 239 240 246 254 253 253 247 243 249 238
282 281 278 293 269 264 263 269 308 313 318 276 239 227 182 272 247 243 242 253 256 260 265 267 267 259 257 254 250 245 242 247 250 256 255 252 249 252 260 258 259 260 267 256 251 243 240 236 240
275 277 272 262 271 267 279 275 299 297 297 292 322 288 259 273 298 250 242 258 249 252 256 270 277 272 262 248 243 241 243 244 249 253 255 256 252 252 256 262 263 262 259 248 235 227 228 238 244
Height
3135 3135 3136 3136 3143 3136 3130 3125 3120 3121 3123 3124 3126 3129 3132 3132 3131 3131 3129 3128 3132 3134 3136 3138 3139 3141 3143 3144 3145 3146 3146 3146 3146 3147 3147 3147 3147 3147 3148 3149 3150 3150 3152 3152 3153 3154 3155 3156 3156
3133 3134 3135 3136 3138 3131 3123 3120 3118 3120 3121 3124 3129 3130 3132 3131 3128 3129 3130 3127 3130 3132 3133 3135 3137 3138 3141 3142 3143 3144 3145 3145 3145 3146 3146 3146 3146 3146 3146 3147 3148 3149 3149 3151 3151 3153 3153 3154 3155
3132 3133 3135 3134 3132 3129 3121 3121 3123 3120 3122 3124 3129 3130 3130 3127 3125 3127 3130 3128 3128 3130 3131 3133 3134 3136 3138 3139 3141 3142 3143 3143 3144 3144 3145 3145 3145 3145 3145 3145 3146 3147 3148 3149 3149 3151 3152 3152 3152
3130 3133 3134 3130 3128 3124 3123 3121 3121 3121 3124 3125 3128 3129 3126 3126 3125 3127 3128 3127 3127 3129 3130 3130 3132 3133 3136 3137 3139 3141 3141 3142 3142 3142 3143 3143 3144 3144 3143 3143 3144 3144 3145 3147 3147 3148 3149 3150 3150
3130 3133 3132 3129 3126 3123 3120 3118 3120 3123 3124 3126 3126 3127 3122 3122 3124 3124 3125 3124 3122 3127 3129 3129 3130 3131 3133 3135 3137 3139 3139 3140 3140 3140 3141 3141 3141 3142 3141 3141 3142 3142 3143 3144 3145 3145 3146 3147 3148
3130 3132 3130 3125 3121 3118 3117 3116 3118 3123 3124 3125 3125 3125 3120 3120 3121 3121 3122 3121 3122 3125 3126 3127 3128 3130 3131 3133 3134 3136 3137 3138 3138 3139 3139 3139 3140 3140 3140 3139 3139 3140 3140 3141 3142 3143 3143 3144 3144
3128 3128 3126 3124 3120 3116 3117 3114 3116 3121 3122 3123 3122 3123 3116 3116 3118 3118 3119 3121 3121 3122 3123 3124 3126 3128 3129 3130 3132 3133 3134 3136 3137 3137 3137 3138 3138 3137 3138 3138 3138 3138 3139 3139 3140 3140 3141 3141 3142
3126 3127 3123 3121 3120 3117 3113 3114 3115 3119 3120 3118 3119 3120 3114 3112 3116 3116 3116 3118 3119 3119 3120 3122 3124 3126 3127 3128 3130 3131 3133 3134 3134 3135 3135 3136 3136 3136 3136 3136 3137 3136 3138 3138 3138 3139 3139 3139 3139
3123 3123 3119 3119 3116 3115 3112 3111 3113 3116 3116 3117 3116 3115 3109 3112 3112 3112 3113 3115 3115 3116 3118 3120 3121 3123 3125 3126 3128 3129 3131 3131 3132 3132 3133 3134 3134 3134 3135 3134 3135 3135 3136 3136 3137 3137 3138 3137 3137
3121 3118 3116 3116 3114 3111 3110 3111 3112 3114 3114 3114 3115 3109 3109 3110 3110 3110 3111 3113 3113 3115 3116 3117 3119 3120 3122 3123 3124 3126 3128 3129 3130 3130 3131 3132 3133 3133 3133 3133 3133 3133 3134 3134 3134 3135 3137 3138 3137
3115 3113 3114 3112 3111 3109 3109 3109 3110 3111 3111 3113 3113 3105 3101 3105 3105 3106 3108 3109 3111 3112 3112 3115 3116 3117 3118 3120 3122 3123 3125 3126 3127 3127 3129 3130 3131 3131 3131 3131 3131 3131 3132 3132 3133 3134 3133 3134 3135
3111 3109 3110 3109 3108 3107 3107 3106 3106 3107 3108 3108 3109 3107 3099 3097 3101 3103 3103 3105 3105 3107 3109 3110 3111 3113 3114 3117 3118 3119 3121 3123 3124 3124 3126 3127 3128 3128 3129 3130 3130 3130 3130 3130 3130 3131 3133 3133 3133
3104 3105 3105 3104 3103 3103 3102 3101 3101 3100 3102 3103 3104 3104 3102 3100 3096 3099 3100 3100 3102 3103 3104 3105 3106 3109 3109 3112 3114 3116 3117 3119 3120 3121 3122 3124 3125 3125 3126 3126 3127 3127 3128 3129 3130 3130 3130 3130 3130
3099 3098 3097 3098 3097 3097 3096 3095 3095 3094 3095 3095 3097 3098 3098 3096 3097 3093 3093 3096 3097 3098 3099 3101 3102 3104 3105 3107 3109 3111 3113 3114 3116 3117 3118 3120 3122 3122 3123 3123 3124 3125 3125 3126 3127 3127 3128 3128 3127
3094 3093 3091 3088 3090 3089 3091 3087 3087 3089 3089 3087 3089 3092 3091 3093 3093 3093 3088 3088 3091 3092 3091 3095 3097 3100 3101 3102 3104 3106 3108 3110 3111 3112 3114 3116 3117 3118 3119 3119 3120 3121 3122 3123 3123 3124 3124 3124 3124
3087 3088 3084 3083 3082 3081 3084 3079 3083 3083 3083 3081 3081 3083 3084 3086 3087 3089 3091 3084 3083 3085 3080 3087 3091 3094 3096 3096 3098 3100 3101 3104 3105 3108 3108 3111 3112 3113 3115 3115 3116 3117 3118 3119 3120 3120 3121 3120 3120
3082 3079 3079 3077 3078 3077 3076 3075 3077 3078 3077 3079 3079 3079 3079 3079 3080 3081 3083 3086 3081 3078 3073 3075 3082 3086 3090 3088 3091 3092 3096 3096 3099 3102 3104 3106 3108 3108 3110 3111 3112 3112 3114 3115 3116 3115 3116 3116 3116
3078 3074 3072 3071 3073 3071 3071 3068 3070 3073 3073 3071 3071 3073 3073 3073 3073 3075 3076 3077 3080 3075 3067 3066 3072 3076 3081 3081 3084 3084 3089 3088 3092 3095 3099 3101 3102 3103 3104 3106 3106 3107 3109 3109 3111 3111 3111 3111 3111
3074 3074 3072 3071 3071 3067 3064 3060 3063 3065 3066 3066 3067 3065 3066 3067 3068 3068 3069 3070 3071 3074 3064 3060 3063 3066 3070 3072 3075 3077 3081 3080 3085 3088 3094 3094 3096 3096 3097 3100 3100 3101 3102 3104 3103 3104 3105 3105 3104
3068 3067 3065 3064 3069 3067 3063 3050 3053 3055 3055 3056 3056 3057 3057 3058 3059 3059 3061 3059 3059 3061 3060 3059 3058 3058 3062 3063 3068 3069 3074 3073 3077 3080 3085 3087 3089 3090 3090 3093 3093 3094 3096 3096 3096 3097 3098 3099 3099
3061 3064 3060 3059 3063 3060 3062 3039 3043 3046 3048 3047 3044 3045 3047 3050 3047 3047 3047 3049 3050 3048 3045 3046 3051 3053 3055 3055 3057 3058 3063 3065 3067 3072 3076 3079 3081 3082 3083 3085 3087 3087 3088 3089 3090 3090 3091 3094 3094
3048 3059 3057 3055 3056 3051 3059 3038 3033 3040 3037 3036 3036 3040 3039 3035 3033 3035 3039 3043 3040 3039 3039 3038 3038 3041 3044 3048 3048 3050 3053 3057 3059 3064 3067 3070 3073 3074 3077 3078 3080 3079 3081 3082 3083 3084 3084 3085 3088
3048 3049 3047 3051 3047 3050 3030 3049 3020 3031 3029 3033 3033 3032 3026 3022 3020 3026 3033 3035 3031 3032 3030 3028 3028 3032 3033 3035 3038 3041 3044 3048 3050 3055 3058 3062 3064 3066 3068 3071 3072 3072 3075 3077 3078 3078 3078 3077 3080
3044 3043 3042 3043 3043 3042 3019 3038 3041 3008 3029 3025 3028 3021 3014 3006 3008 3015 3021 3027 3030 3027 3024 3024 3025 3023 3025 3029 3028 3028 3034 3037 3040 3044 3050 3054 3056 3058 3059 3062 3064 3066 3068 3069 3069 3071 3071 3071 3072
3041 3041 3037 3030 3025 3019 3021 3026 3016 3019 3016 3015 3012 3008 3004 3003 3006 3008 3010 3011 3017 3017 3017 3018 3019 3020 3020 3021 3026 3026 3023 3028 3029 3032 3040 3044 3047 3049 3051 3053 3055 3058 3060 3060 3060 3061 3063 3064 3064
3036 3037 3035 3028 3020 3017 3018 3009 3010 3013 3013 3009 3006 3001 3004 3004 3005 3003 3002 3006 3005 3007 3011 3013 3013 3011 3013 3015 3018 3020 3021 3019 3018 3022 3030 3034 3036 3039 3042 3045 3047 3048 3049 3049 3050 3053 3053 3054 3054
3033 3032 3035 3029 3025 3017 3009 3006 3009 3007 3009 3007 3006 3000 2998 2994 2997 2997 2997 2995 2999 2997 2999 3005 3005 3003 3004 3009 3010 3014 3015 3014 3013 3015 3020 3023 3028 3030 3032 3033 3036 3036 3036 3036 3038 3038 3043 3045 3045
3034 3033 3031 3030 3023 3013 3006 3005 3001 2998 2994 3002 3005 3003 2999 2991 2989 2989 2991 2991 2988 2988 2991 2995 2998 2998 2997 3000 3001 3004 3006 3005 3007 3008 3011 3015 3017 3018 3020 3022 3023 3024 3026 3023 3029 3030 3034 3037 3039
3027 3028 3031 3027 3024 3011 3001 2998 3001 3002 2996 2992 2993 2994 2989 2992 2982 2981 2983 2987 2982 2983 2985 2987 2988 2990 2990 2992 2993 2995 2998 2999 3001 3003 3005 3006 3009 3011 3012 3015 3018 3018 3018 3020 3022 3024 3025 3029 3032
3021 3020 3022 3021 3016 3012 3010 2999 2998 2996 2997 2992 2988 2983 2979 2981 2982 2974 2977 2982 2980 2981 2981 2980 2979 2980 2983 2984 2986 2989 2992 2992 2994 2995 2998 2999 3000 3002 3004 3005 3007 3010 3009 3011 3012 3017 3019 3022 3024